Location: Observatorio Las Palmas
(29.0667°N, 110.9333°W)
Time: 13:40:00
(UTC-07:00)

Hubble Space Telescope - Visible Passes

Search period start: 22 December 2014 00:00
Search period end: 01 January 2015 00:00
Orbit: 545 x 549 km, 28.5° (Epoch: 22 December)

Date Brightness Start Highest point End Pass type
(mag) Time Alt. Az. Time Alt. Az. Time Alt. Az.
22 Dec 2.8 19:06:58 10° WSW 19:10:21 24° SSW 19:12:53 14° SSE visible
23 Dec 3.2 18:59:33 10° WSW 19:02:30 19° SSW 19:05:27 10° SSE visible
24 Dec 3.6 18:52:22 10° WSW 18:54:38 14° SSW 18:56:53 10° S visible
25 Dec 3.9 18:45:58 10° SW 18:46:44 10° SSW 18:47:29 10° SSW visible
